Weather Service Report


662 
ASUS46 KPQR 281610
RWROR 

OREGON REGIONAL WEATHER ROUNDUP
NATIONAL WEATHER SERVICE PORTLAND OR
900 AM PDT TUE APR 28 2015

NOTE: "FAIR" INDICATES FEW OR NO CLOUDS BELOW 12,000 FEET WITH
NO SIGNIFICANT WEATHER AND/OR OBSTRUCTIONS TO VISIBILITY.

ORZ001>013-281700-
NORTHWEST OREGON

  
CITY           SKY/WX    TMP DP  RH WIND       PRES   REMARKS
ASTORIA        LGT RAIN  51  48  89 NW14      30.13R FOG              
NEWPORT        DRIZZLE   54  52  94 W8        30.16R                  
PORTLAND       PTSUNNY   59  51  75 S7        30.10R                  
VANCOUVER WA   CLOUDY    60  50  69 CALM      30.09S                  
SCAPPOOSE      CLOUDY    60  52  74 E5        30.08S                  
HILLSBORO      CLOUDY    58  50  75 CALM      30.08S                  
AURORA         CLOUDY    56  51  84 SW7       30.11S                  
MCMINNVILLE    MOSUNNY   59  51  75 CALM      30.10S                  
SALEM          PTSUNNY   58  50  75 CALM      30.10S                  
CORVALLIS      SUNNY     59  52  77 S3        30.13R                  
EUGENE         PTSUNNY   59  49  69 W3        30.12S                  
$$

ORZ021-028-281700-
SOUTHWEST OREGON

  
CITY           SKY/WX    TMP DP  RH WIND       PRES   REMARKS
NORTH BEND     CLOUDY    55  54  94 CALM      30.15S                  
BROOKINGS      MOSUNNY   56  54  93 VRB3      30.14R                  
ROSEBURG       SUNNY     57  49  74 CALM      30.12S                  
SEXTON SUMMIT  LGT RAIN  47  41  80 N8        30.10R                  
MEDFORD        SUNNY     62  48  60 NW5       30.08R                  
$$

ORZ014>016-041-281700-
COLUMBIA GORGE

  
CITY           SKY/WX    TMP DP  RH WIND       PRES   REMARKS
TROUTDALE      CLOUDY    59  50  72 SW6       30.09R                  
THE DALLES     SUNNY     63  47  55 NW10      30.02F                  
$$

ORZ029>031-041-044-049-050-061>064-502-503-505>511-281700-
EASTERN OREGON

  
CITY           SKY/WX    TMP DP  RH WIND       PRES   REMARKS
REDMOND        SUNNY     61  30  31 S9        30.04F                  
BEND           SUNNY     57  30  35 SW7       30.05S                  
PRINEVILLE     SUNNY     63  25  23 MISG      30.04F                  
KLAMATH FALLS  SUNNY     57  33  40 CALM      30.08F                  
LAKEVIEW       SUNNY     55  30  38 NE3       30.14F                  
HERMISTON      SUNNY     57  40  52 VRB3      30.00S                  
PENDLETON      SUNNY     66  39  37 CALM      29.99F                  
JOHN DAY       SUNNY     61  30  31 E3        30.11S                  
MEACHAM        SUNNY     60  30  32 VRB3      30.08F                  
LA GRANDE      SUNNY     63  28  27 S24G30    30.09S                  
BAKER CITY     SUNNY     60  30  32 E12       30.15F                  
BURNS          SUNNY     57  26  30 E6        30.14F                  
ROME             N/A     51  28  41 CALM      30.14F                  
ONTARIO        SUNNY     53  34  48 CALM      30.18F                  
$$

Return to Home page


Western Regional Climate Center, wrcc@dri.edu